View from above orbital plane
|
View from above satellite
|
Ground track
|
The orbit data is extracted from the following two-line orbital elements,
1 43678U 18084H 22175.82579270 .00000827 00000-0 86952-4 0 9997
2 43678 97.9716 309.1775 0008407 259.7659 100.2592 14.92185310198958
Epoch (UTC): | 24 June 2022 19:49:08 |
Eccentricity: | 0.0008407 |
inclination: | 97.9716° |
perigee height: | 585 km |
apogee height: | 597 km |
right ascension of ascending node: | 309.1775° |
argument of perigee: | 259.7659° |
revolutions per day: | 14.92185310 |
mean anomaly at epoch: | 100.2592° |
orbit number at epoch: | 19895 |
The dashed part of the orbit path shows where the satellite is in the earth's shadow,
|
|